Miscellaneous Local Product
Issued by NWS North Platte, NE

Home | Current Version | Previous Version | Text Only | Print | Product List | Glossary On
Versions: 1 2 3 4 5 6 7 8 9 10 11 12 13 14 15 16 17 18 19 20 21 22 23 24 25 26 27 28 29 30 31 32 33 34 35 36 37 38 39 40 41 42 43 44 45 46 47 48 49 50
000
AXUS43 KLBF 240810
MISLBF


WESTERN AND NORTH CENTRAL NEBRASKA HOURLY WEATHER ROUNDUP
NATIONAL WEATHER SERVICE NORTH PLATTE NE
300 AM CDT SAT SEP 24 2016

NOTE: "FAIR" INDICATES FEW OR NO CLOUDS BELOW 12,000 FEET WITH NO
SIGNIFICANT WEATHER AND/OR OBSTRUCTIONS TO VISIBILITY.

NOTE: STATIONS NOT REPORTING VARIABLES SUCH AS SKY/WEATHER OR
PRESSURE ARE PROVIDED BY RAWS AND APRS NETWORKS AND ARE NOT UNDER
NATIONAL WEATHER SERVICE QUALITY CONTROL.

...OBSERVATIONS IN AND NEAR THE EASTERN PANHANDLE OF NEBRASKA...

CITY           SKY/WX    TMP DP  RH WIND       PRES   REMARKS
PINE RIDGE     PTCLDY    52  49  89 W8        29.84F
CHADRON        CLOUDY    51  46  83 SW9       29.86S
ALLIANCE       CLOUDY    49  45  86 NW12      29.84F
SIDNEY         LGT RAIN  49  46  90 W17G24    29.95R
CRESCENT LAKE    N/A     50  46  84 N13G22      N/A
$$

...OBSERVATIONS IN NORTHERN NEBRASKA AND FAR SOUTHERN SOUTH DAKOTA...

CITY           SKY/WX    TMP DP  RH WIND       PRES   REMARKS
WINNER         FAIR      74  62  66 S14G21    29.77F
VALENTINE      PTCLDY    57  50  77 W7        29.84R
THEDFORD       RAIN      70  61  73 W28G35    29.86R
AINSWORTH      CLEAR     70  62  74 S18G25    29.80R
O`NEILL        CLEAR     72  62  70 SE16G25   29.85F
ORD            LGT RAIN  72  62  71 SE17G24   29.83F
BROKEN BOW     CLEAR     68  62  81 SE10      29.84S
VALENTINE NWR    N/A     66  58  76 W5G14       N/A
BUTTE            N/A     71  63  75 SE18        N/A
HALSEY           N/A     72  60  64 SE12G23     N/A
EWING            N/A     71  64  78 S8          N/A
$$

...OBSERVATIONS IN SOUTHWEST NEBRASKA AND FAR NORTHEAST COLORADO...

CITY           SKY/WX    TMP DP  RH WIND       PRES   REMARKS
WRAY           CLOUDY    59  54  82 W9        29.83
HOLYOKE        FAIR      54  50  87 W15       29.92R
IMPERIAL       CLOUDY    58  50  75 N13       29.84S
OGALLALA       MOCLDY    56  50  81 N17G28    29.81F
NORTH PLATTE   CLOUDY    68  63  84 SE8       29.80F
MCCOOK         PTCLDY    73  56  54 SW15      29.82R
LEXINGTON      MOCLDY    72  63  73 S16       29.83S
STAPLETON        N/A     66  63  90 CALM        N/A
GOTHENBURG       N/A     71  58  64 SE8         N/A
CALLAWAY         N/A     68  62  80 S15         N/A
$$

...OBSERVATIONS IN CENTRAL LINCOLN COUNTY AREA...

CITY           SKY/WX    TMP DP  RH WIND       PRES   REMARKS
N.P. AIRPORT   CLOUDY    68  63  84 SE8       29.80F
N.P. DOWNTOWN    N/A     68  64  85 S3G12       N/A
N.P. SOUTHEAST   N/A     68  63  83 SE5G13      N/A
N.P. HILLCREST   N/A     65  64  95 SE14        N/A
$$

...SOME OBSERVATIONS FROM AROUND THE REGION...

CITY           SKY/WX    TMP DP  RH WIND       PRES   REMARKS
DENVER         PTCLDY    46  37  71 E7        29.98R
LARAMIE        CLOUDY    33  32  96 NW7       30.02R WCI  27
CHEYENNE       LGT RAIN  41  35  79 N13       30.01R
SCOTTSBLUFF    CLOUDY    50  49  96 W10       29.91F
RAPID CITY     CLOUDY    58  56  93 CALM      29.77F
BISMARCK       CLOUDY    62  61  96 NE8       29.78F
PIERRE         CLEAR     68  59  73 SE15      29.73F
SIOUX FALLS    CLEAR     71  64  78 SE12      29.94R
OMAHA          PTCLDY    73  64  73 SE10      29.96S
GRAND ISLAND   CLEAR     71  63  75 SE14      29.88F
KANSAS CITY    PTCLDY    71  63  75 SE9       30.01S
WICHITA        PTCLDY    74  68  81 SE10      29.94S
OKLAHOMA CITY  CLEAR     75  70  84 S9        29.96R
DALLAS         PTCLDY    80  71  74 S10       29.97S
AMARILLO       MOCLDY    69  62  78 S14       29.97R
DODGE CITY     MOCLDY    73  66  78 S18G29    29.89F
HAYS           PTCLDY    73  61  64 S15G21    29.87S
GOODLAND       PTCLDY    58  42  55 SW16      29.89R
$$




USA.gov is the U.S. government's official web portal to all federal, state and local government web resources and services.